Temperature
19 18 19 18 18 18 18 18 18 18 18 18 18 18 18 18 18 18 18 18 18 18 18 18 18 18 18 18 18 18 18 18 18 18 18 18 18 18 18 18 17 17 18
19 18 18 18 18 18 18 18 18 18 18 18 18 18 18 18 18 18 18 18 18 18 18 18 18 18 18 18 18 18 18 18 18 18 18 18 18 18 18 18 17 17 18
19 18 18 18 18 18 18 18 18 18 18 18 18 18 18 18 18 18 18 18 18 18 18 18 18 18 18 18 18 18 18 18 18 18 17 17 17 18 18 18 18 18 18
19 18 18 18 18 18 18 18 18 18 18 18 18 18 18 18 18 18 18 18 18 18 18 18 18 18 18 18 18 18 18 18 18 18 17 17 17 17 18 18 18 18 17
19 18 18 18 18 18 18 18 18 18 18 18 18 18 18 18 18 18 18 18 18 18 18 18 18 18 18 18 18 18 18 18 18 17 17 17 17 17 17 17 17 17 17
19 18 18 18 18 18 18 18 18 18 18 18 18 18 18 18 18 18 18 18 18 18 18 18 18 18 18 18 18 18 18 18 17 17 17 17 17 17 17 17 17 17 17
19 19 18 18 18 18 18 18 18 18 18 18 18 18 18 18 18 18 18 18 18 18 18 18 18 18 18 18 18 18 18 18 17 17 17 17 17 17 17 17 17 17 17
19 19 18 18 18 18 18 18 18 18 18 18 18 18 18 18 18 18 18 18 18 18 18 18 18 18 18 17 17 17 17 17 17 17 17 17 17 17 17 17 17 17 17
19 19 18 18 18 18 18 18 18 18 18 18 18 18 18 18 18 18 18 18 18 18 18 18 18 18 17 17 17 17 17 17 17 17 17 17 17 17 17 17 17 17 17
19 19 18 18 18 18 18 18 18 18 18 18 18 18 18 18 18 18 18 18 18 18 18 18 18 17 17 17 17 17 17 17 18 18 17 17 17 17 17 17 17 17 17
18 18 19 18 18 18 18 18 18 18 18 18 18 18 18 17 17 17 17 18 18 18 18 18 18 18 17 17 17 17 17 17 18 18 17 17 18 17 17 17 17 17 17
19 18 18 18 18 18 18 18 18 18 17 17 17 17 17 17 17 17 18 18 18 18 18 18 18 18 17 17 17 17 17 17 18 17 17 18 18 17 17 17 17 17 17
19 18 18 18 18 18 18 18 18 18 17 17 17 17 17 17 17 17 17 17 18 18 17 17 17 17 17 17 17 17 17 18 18 18 17 17 17 17 17 17 17 17 17
19 19 18 18 18 18 18 18 18 18 18 18 17 17 17 17 17 17 17 17 17 17 17 17 17 17 17 17 17 17 17 17 18 18 17 17 17 17 17 17 17 17 17
19 19 18 18 18 18 18 18 18 18 18 18 17 17 17 17 17 17 17 17 17 17 17 17 17 17 17 17 17 17 17 17 17 17 17 17 17 17 17 17 17 17 17
19 18 18 18 18 18 18 18 18 18 18 18 17 17 17 17 17 17 17 17 17 17 17 17 17 17 17 17 17 17 17 17 17 17 17 17 17 17 17 17 17 17 17
19 19 18 18 18 18 18 18 18 18 18 18 18 17 17 17 17 17 17 17 17 17 17 17 17 17 17 17 17 17 17 17 17 17 17 17 17 17 17 17 17 17 17
19 19 19 18 18 18 18 18 18 18 18 18 18 17 17 17 17 17 18 18 17 17 17 17 17 17 17 17 17 17 17 17 17 17 17 17 17 17 17 17 17 17 17
19 19 19 19 18 18 18 18 18 18 18 18 18 17 17 17 17 18 18 18 18 17 17 18 17 17 17 17 17 17 17 17 17 17 17 17 17 17 17 17 17 17 17
19 19 19 19 19 18 18 18 18 18 18 18 18 18 17 17 17 18 18 18 17 17 17 17 17 17 17 17 17 18 17 17 17 17 17 17 17 17 17 17 17 17 17
19 19 19 19 19 19 18 18 18 18 18 18 17 18 18 17 17 18 18 18 18 17 17 17 17 17 17 17 17 17 18 17 17 17 17 17 17 17 17 17 17 17 17
20 19 19 19 19 19 18 18 18 18 18 18 18 18 18 17 18 17 18 18 18 17 17 17 17 17 17 17 17 18 18 18 17 17 17 17 17 17 17 17 17 17 17
20 20 19 19 19 19 19 18 18 18 18 18 18 18 17 17 17 17 17 17 18 17 17 17 17 17 17 17 17 17 18 18 18 18 17 17 17 17 17 17 17 16 16
21 20 20 19 19 19 19 18 18 18 18 18 18 18 17 17 17 17 17 17 17 17 17 17 17 17 17 17 17 17 17 17 17 18 17 17 17 17 17 17 17 16 16
21 20 20 20 19 19 19 19 18 18 18 18 18 18 18 17 17 17 17 17 17 17 17 17 17 17 17 17 17 17 17 17 17 17 17 17 17 17 16 16 16 16 16
21 20 20 20 20 19 19 19 18 18 18 18 18 18 18 18 17 17 17 17 17 17 17 17 17 17 17 17 17 17 17 17 17 17 17 17 17 16 16 16 16 16 16
Wind_Speed
5 7 9 7 8 10 10 11 12 13 12 13 13 13 13 13 13 13 14 15 15 14 15 15 16 16 16 17 18 18 18 17 17 18 18 17 17 18 18 17 16 16 17
5 9 11 8 9 10 10 11 12 12 12 12 12 12 13 13 13 13 13 14 14 14 14 14 15 15 16 16 17 16 17 17 17 17 18 17 17 17 16 14 12 16 17
6 9 10 9 9 10 10 11 12 12 12 11 11 11 11 12 12 13 13 13 14 13 13 13 14 14 15 15 16 16 16 16 16 16 15 15 16 15 15 15 16 17 16
7 9 10 10 10 10 10 10 11 11 11 11 11 11 11 11 12 12 12 13 13 13 13 13 13 13 13 14 15 15 15 15 14 13 11 12 14 15 15 15 16 16 15
8 9 11 9 10 10 9 10 10 11 11 11 11 11 11 11 11 11 11 12 13 12 12 12 12 12 13 14 14 14 14 13 12 10 10 11 12 14 14 15 15 15 15
9 9 12 9 9 9 9 9 9 10 10 10 11 11 11 11 11 11 11 11 12 12 11 11 11 11 12 14 14 13 12 12 11 10 10 10 11 13 13 14 14 14 14
8 9 12 10 8 8 8 8 9 9 9 10 10 10 10 10 10 10 10 10 10 11 11 11 11 11 11 12 12 11 10 9 7 9 9 9 11 13 12 13 13 13 13
8 9 10 11 8 8 8 8 8 8 9 9 9 9 9 9 10 10 9 9 9 10 10 10 11 10 10 11 10 10 9 8 8 8 8 9 12 12 12 12 12 12 12
7 8 8 8 9 8 7 7 7 8 8 8 9 9 9 9 9 9 9 9 9 9 10 10 10 10 9 9 8 8 7 6 6 7 7 8 13 11 11 11 12 11 11
6 7 7 7 6 6 8 8 7 8 8 8 8 9 9 9 9 8 8 8 8 8 9 10 9 9 8 8 7 7 7 7 6 7 7 9 13 11 11 11 11 11 11
5 5 5 6 5 5 6 8 8 10 9 8 8 8 7 7 7 7 8 7 7 8 9 9 8 8 8 8 8 7 7 4 5 4 5 11 12 11 11 11 11 11 11
6 5 5 5 5 5 4 6 6 6 7 5 5 6 5 5 4 6 9 7 7 8 9 8 7 8 7 7 9 8 4 4 4 5 6 11 11 11 11 11 11 11 11
6 5 5 5 4 4 4 4 4 4 4 5 5 4 5 4 5 5 5 7 7 8 7 8 7 5 4 3 3 4 3 3 2 3 7 10 10 11 11 11 12 12 12
5 5 5 5 4 3 3 4 4 3 3 4 5 4 4 3 3 3 3 4 4 4 4 4 3 4 3 3 3 2 2 2 2 2 5 8 8 9 10 10 11 12 12
5 5 5 4 4 3 2 1 4 3 3 4 3 3 3 3 3 3 3 2 3 3 4 3 3 3 3 4 3 3 2 2 2 2 4 7 7 8 9 9 9 11 12
4 4 4 5 5 4 3 2 2 3 3 3 3 3 2 2 3 3 3 2 2 2 2 2 3 3 2 2 2 2 3 3 3 2 3 6 8 8 9 10 10 10 12
5 4 4 5 4 4 3 3 2 2 3 2 2 3 2 2 2 2 2 2 2 2 3 3 3 3 3 3 2 3 3 3 2 3 3 3 5 9 10 10 10 11 10
5 5 4 4 5 4 3 2 2 1 2 2 2 3 2 2 2 2 1 1 1 2 2 2 3 3 2 2 2 2 2 2 3 3 3 3 4 5 8 11 10 10 11
5 5 5 4 4 4 3 3 2 1 1 1 1 2 2 2 2 2 1 1 2 2 2 3 2 2 2 2 2 3 2 3 2 3 3 3 3 4 4 8 10 10 9
6 5 5 5 4 4 3 3 2 1 1 1 1 1 1 2 2 1 1 1 2 1 2 2 2 2 2 2 3 2 2 2 3 3 3 3 3 4 4 4 6 8 9
6 6 6 5 5 4 3 3 3 2 2 2 2 1 1 2 2 2 1 1 1 1 2 2 2 3 3 2 2 3 3 3 3 2 3 2 2 3 3 3 3 3 5
8 7 6 6 6 5 4 2 2 1 1 2 1 2 1 1 2 2 1 1 1 1 1 2 2 3 2 2 3 3 3 3 3 3 3 3 2 2 2 3 3 3 3
9 8 6 6 6 5 4 4 3 2 2 2 2 2 2 2 2 2 2 1 2 2 2 2 3 3 3 3 3 3 3 2 1 3 3 2 2 2 3 3 3 3 4
9 8 7 7 6 6 5 4 3 3 2 1 1 1 2 2 2 2 2 2 3 2 2 3 2 3 4 3 3 3 4 3 2 1 2 2 3 3 3 3 3 3 4
9 9 8 7 7 6 5 5 4 3 2 1 1 2 2 2 2 2 2 2 3 3 3 3 2 3 3 3 3 3 3 3 5 4 3 2 2 2 3 3 3 2 3
9 8 8 8 7 6 6 5 4 3 3 2 2 2 2 2 2 2 2 2 3 2 2 3 3 3 3 3 4 3 3 3 3 4 4 3 2 2 2 2 2 2 2
Wind_Direction
74 85 90 89 92 93 94 98 103 103 103 103 106 106 107 107 108 109 110 112 113 116 119 120 119 120 120 122 124 125 126 126 125 125 123 123 122 121 123 126 128 119 121
86 95 99 94 97 97 96 97 101 105 104 104 107 108 108 107 109 111 113 115 116 117 119 120 120 120 121 124 126 128 129 128 128 128 129 127 125 125 126 125 116 119 126
98 102 108 96 98 97 95 96 100 104 105 105 106 109 108 107 106 108 110 114 115 115 116 119 121 122 125 126 128 129 129 130 131 136 143 135 130 129 128 124 121 127 129
99 102 98 100 98 97 93 95 101 104 104 102 103 107 107 107 106 106 108 111 112 114 118 120 121 123 126 127 129 130 130 131 137 153 148 135 134 130 132 132 133 134 136
98 100 101 104 98 99 96 95 101 106 105 103 103 104 104 106 107 107 106 107 108 112 115 117 119 123 127 129 129 130 132 135 148 164 132 131 129 133 139 140 139 139 140
106 104 103 105 102 103 102 100 102 108 108 106 104 104 103 104 106 107 108 108 109 111 112 114 116 119 127 130 130 132 137 148 167 140 133 138 134 139 143 143 143 143 144
101 97 101 104 108 107 108 107 107 109 110 109 107 107 107 108 109 109 110 111 113 113 114 114 113 116 122 129 134 138 145 167 162 138 139 138 132 142 148 148 148 148 147
99 99 102 109 104 101 105 109 112 113 112 112 111 110 110 110 109 108 109 112 115 117 117 116 115 116 120 127 135 145 156 184 156 143 143 138 135 149 153 153 154 155 155
100 103 105 113 112 114 105 100 108 115 116 116 114 112 110 110 109 108 109 112 116 121 123 122 121 118 119 125 134 144 162 193 169 149 152 144 144 158 163 163 163 163 163
101 106 114 108 107 119 114 103 104 116 117 118 114 115 118 123 120 121 125 116 120 125 128 127 128 126 129 132 135 138 161 192 174 158 157 144 152 168 176 175 173 172 171
110 105 104 109 114 112 102 110 123 133 133 142 131 135 151 136 131 139 108 118 129 133 133 132 138 142 150 150 143 151 178 183 160 159 151 136 160 176 184 181 180 181 179
119 115 110 110 116 108 95 103 114 124 130 129 121 135 133 125 124 116 119 123 132 140 143 141 152 166 184 159 155 178 184 177 171 166 146 148 173 184 190 189 188 190 189
120 116 119 112 105 102 106 102 103 111 119 121 118 124 123 133 135 134 135 140 144 158 154 151 173 174 164 151 168 165 158 186 175 170 147 158 183 194 197 197 196 196 198
122 120 115 117 116 103 89 104 116 116 119 115 123 132 131 129 130 116 128 135 145 147 142 156 160 154 151 163 169 161 172 194 184 163 138 155 182 196 199 198 200 202 203
132 127 120 125 122 123 120 112 108 110 113 117 122 121 131 140 133 129 121 134 141 139 153 161 160 152 167 178 180 177 200 199 207 189 155 159 178 192 198 198 200 207 209
141 135 134 145 141 140 140 125 110 113 120 120 126 119 131 129 131 145 147 151 152 168 165 174 170 180 192 171 182 192 217 210 190 210 195 169 183 197 201 206 208 210 215
150 150 154 160 153 156 153 150 134 128 126 115 122 121 134 134 139 168 151 172 162 175 177 198 195 196 200 190 193 206 216 225 208 217 229 219 195 195 201 210 213 215 219
156 157 169 168 160 166 165 176 154 138 126 134 144 137 142 137 165 202 175 162 182 201 199 198 218 207 201 212 210 233 223 212 217 221 230 227 226 213 197 202 210 216 222
168 168 172 174 173 177 174 178 177 156 143 153 149 141 148 164 176 203 168 129 218 214 217 232 192 226 217 230 222 215 222 214 217 218 228 232 227 226 219 190 200 210 219
172 173 174 178 181 188 182 177 179 169 177 167 161 143 165 177 183 214 179 182 227 206 220 232 231 233 243 248 254 245 238 228 229 223 222 216 216 225 221 219 207 203 208
175 176 179 183 177 188 189 194 183 177 177 175 174 150 185 204 190 210 215 162 242 224 244 238 235 218 228 235 238 235 225 216 219 219 221 226 208 213 219 220 233 231 205
180 181 183 184 181 190 183 194 193 190 189 167 162 144 196 208 219 203 213 233 226 234 244 250 243 252 241 223 247 255 237 208 209 211 210 214 224 210 218 216 214 214 244
186 186 187 185 183 189 188 191 185 182 200 184 183 184 203 210 219 246 237 257 248 242 234 243 232 235 244 237 241 258 270 254 225 186 201 208 220 230 226 211 213 216 229
189 185 184 184 184 186 196 202 205 208 212 203 213 176 195 212 227 233 239 241 253 256 240 241 224 241 239 241 234 246 266 299 275 241 197 200 211 232 247 247 235 213 228
188 184 181 181 183 186 196 200 214 223 218 213 215 181 223 215 227 234 237 242 245 253 254 258 243 251 248 255 251 243 245 245 252 261 258 252 242 236 235 238 244 239 240
184 182 178 177 182 188 196 200 215 224 226 230 233 223 223 215 221 222 233 240 247 257 254 250 247 237 257 263 266 259 255 255 253 253 257 253 253 256 241 233 237 237 238
Height
1517 1515 1513 1514 1514 1514 1514 1514 1515 1515 1516 1516 1517 1518 1518 1519 1520 1521 1522 1523 1524 1525 1526 1527 1528 1529 1530 1532 1534 1535 1537 1539 1541 1543 1545 1546 1547 1549 1550 1552 1554 1555 1556
1518 1517 1515 1516 1516 1516 1516 1517 1517 1518 1518 1519 1520 1520 1521 1522 1523 1524 1525 1525 1526 1527 1528 1529 1530 1531 1532 1534 1536 1538 1539 1541 1543 1545 1547 1548 1549 1551 1552 1554 1555 1557 1558
1520 1519 1518 1518 1518 1518 1519 1519 1520 1520 1521 1521 1522 1523 1524 1525 1526 1526 1527 1528 1529 1529 1530 1531 1532 1533 1534 1536 1538 1540 1541 1543 1545 1547 1549 1551 1552 1553 1554 1556 1557 1558 1560
1521 1522 1520 1520 1520 1520 1521 1521 1522 1522 1523 1523 1524 1525 1526 1527 1528 1528 1529 1530 1531 1531 1532 1533 1533 1534 1535 1537 1539 1541 1543 1545 1547 1549 1552 1554 1554 1555 1556 1557 1559 1560 1561
1523 1523 1521 1522 1522 1522 1523 1523 1524 1524 1525 1525 1526 1527 1528 1528 1529 1530 1531 1532 1533 1533 1534 1535 1535 1534 1535 1537 1540 1542 1545 1547 1549 1551 1554 1555 1556 1556 1557 1559 1560 1561 1563
1525 1525 1524 1523 1523 1524 1524 1525 1525 1526 1527 1527 1528 1529 1530 1531 1531 1532 1533 1534 1534 1535 1536 1536 1536 1535 1536 1538 1541 1544 1546 1548 1551 1554 1555 1556 1557 1557 1559 1560 1561 1563 1564
1527 1527 1526 1525 1525 1525 1526 1526 1526 1527 1528 1529 1530 1531 1532 1532 1533 1534 1534 1535 1536 1537 1537 1538 1538 1538 1538 1540 1543 1545 1547 1549 1553 1555 1556 1557 1558 1558 1560 1561 1562 1564 1565
1528 1528 1527 1527 1527 1527 1527 1527 1527 1528 1529 1530 1531 1533 1533 1534 1535 1535 1536 1537 1537 1538 1539 1540 1540 1541 1542 1543 1545 1547 1549 1550 1554 1556 1557 1558 1558 1559 1561 1562 1563 1564 1566
1529 1530 1530 1530 1529 1528 1528 1527 1527 1528 1530 1531 1533 1534 1535 1535 1536 1537 1537 1538 1539 1540 1540 1541 1542 1543 1544 1545 1546 1548 1549 1551 1554 1556 1557 1558 1559 1560 1561 1562 1563 1565 1566
1531 1531 1531 1532 1532 1531 1530 1527 1526 1528 1530 1532 1534 1535 1536 1537 1538 1538 1539 1539 1540 1540 1541 1542 1544 1544 1545 1546 1548 1549 1550 1552 1555 1557 1558 1558 1559 1560 1561 1562 1563 1565 1566
1532 1533 1533 1533 1533 1533 1532 1529 1527 1528 1531 1534 1536 1537 1538 1540 1541 1541 1540 1541 1541 1542 1543 1544 1545 1546 1547 1548 1549 1550 1551 1554 1556 1557 1558 1558 1559 1560 1561 1562 1563 1564 1566
1533 1534 1534 1535 1535 1535 1534 1531 1530 1532 1534 1536 1537 1539 1540 1540 1542 1542 1541 1541 1542 1543 1544 1545 1546 1547 1548 1550 1550 1551 1553 1554 1556 1557 1557 1558 1559 1560 1561 1562 1563 1564 1565
1534 1535 1535 1536 1536 1536 1536 1535 1534 1535 1537 1538 1539 1539 1540 1541 1542 1543 1543 1543 1543 1544 1546 1546 1548 1549 1550 1551 1552 1553 1553 1555 1556 1557 1557 1557 1558 1559 1559 1561 1562 1563 1564
1535 1536 1536 1536 1536 1536 1537 1538 1538 1539 1539 1540 1540 1541 1542 1542 1543 1544 1544 1545 1545 1546 1547 1548 1548 1549 1550 1551 1552 1553 1553 1554 1555 1557 1556 1556 1557 1558 1558 1559 1561 1562 1563
1536 1537 1537 1537 1537 1537 1537 1539 1540 1540 1541 1541 1541 1541 1542 1543 1544 1544 1544 1545 1546 1547 1547 1548 1549 1549 1550 1551 1553 1553 1554 1554 1555 1556 1556 1555 1556 1556 1557 1558 1559 1560 1562
1537 1537 1537 1537 1538 1538 1538 1539 1540 1542 1541 1542 1543 1543 1543 1544 1544 1545 1545 1546 1547 1548 1548 1549 1549 1550 1551 1552 1553 1553 1553 1554 1554 1554 1555 1555 1555 1555 1556 1557 1558 1559 1560
1537 1537 1537 1538 1538 1539 1540 1541 1542 1542 1543 1543 1543 1543 1543 1544 1544 1545 1546 1546 1547 1548 1548 1549 1550 1550 1551 1552 1552 1553 1553 1553 1554 1554 1554 1555 1555 1555 1555 1556 1557 1558 1558
1537 1537 1538 1539 1539 1539 1540 1540 1542 1543 1543 1543 1544 1544 1544 1544 1545 1545 1546 1547 1547 1548 1548 1549 1549 1550 1550 1551 1551 1552 1552 1552 1553 1553 1554 1553 1554 1554 1554 1554 1555 1556 1557
1537 1537 1538 1539 1539 1540 1540 1541 1542 1542 1543 1544 1544 1544 1544 1544 1545 1546 1546 1546 1546 1547 1548 1548 1549 1549 1550 1550 1551 1551 1551 1551 1552 1552 1552 1552 1552 1553 1553 1553 1553 1554 1555
1536 1537 1538 1539 1539 1540 1541 1541 1542 1542 1543 1543 1544 1544 1544 1544 1544 1545 1545 1545 1546 1547 1546 1547 1547 1547 1548 1549 1550 1550 1550 1550 1550 1551 1551 1551 1551 1551 1552 1552 1552 1552 1552
1536 1536 1537 1538 1538 1539 1540 1541 1542 1543 1542 1543 1543 1543 1543 1544 1544 1544 1545 1545 1545 1545 1545 1546 1546 1547 1547 1548 1548 1548 1548 1548 1549 1549 1549 1549 1550 1550 1550 1550 1550 1551 1551
1535 1535 1536 1537 1538 1539 1540 1540 1541 1541 1542 1542 1543 1542 1543 1543 1543 1544 1544 1544 1544 1544 1544 1544 1544 1545 1546 1546 1547 1547 1547 1548 1547 1547 1547 1547 1548 1548 1548 1548 1548 1548 1549
1533 1534 1536 1536 1537 1538 1539 1540 1541 1541 1541 1542 1542 1542 1542 1542 1542 1543 1543 1543 1542 1543 1543 1542 1543 1543 1544 1545 1545 1546 1546 1545 1545 1545 1545 1546 1546 1546 1546 1546 1546 1546 1546
1531 1533 1534 1535 1536 1537 1538 1539 1540 1541 1541 1541 1541 1541 1541 1541 1541 1541 1541 1541 1541 1541 1541 1541 1541 1542 1542 1543 1543 1543 1544 1544 1544 1544 1544 1544 1543 1543 1543 1543 1544 1543 1543
1530 1531 1532 1533 1534 1535 1537 1537 1538 1540 1540 1540 1540 1539 1539 1540 1540 1540 1540 1539 1539 1539 1539 1539 1539 1540 1540 1540 1541 1541 1541 1541 1542 1542 1542 1542 1542 1541 1540 1540 1540 1540 1540
1528 1529 1531 1531 1533 1534 1535 1536 1537 1538 1538 1538 1538 1538 1539 1539 1539 1538 1538 1538 1538 1538 1538 1538 1538 1538 1538 1538 1538 1539 1539 1539 1539 1540 1539 1539 1539 1539 1538 1538 1538 1538 1538